Time,TemperatureF,DewpointF,PressureIn,WindDirection,WindDirectionDegrees,WindSpeedMPH,WindSpeedGustMPH,Humidity,HourlyPrecipIn,Conditions,Clouds,dailyrainin,SoftwareType,DateUTC
2016-02-07 00:04:00,48.3,46.9,30.01,WNW,302,5.8,5.8,95,0.01,RA,,0.00,WeatherDisplay:10.37,2016-02-07 05:04:00,
2016-02-07 00:09:00,48.1,46.7,30.01,NW,307,6.9,6.9,95,0.01,RA,,0.00,WeatherDisplay:10.37,2016-02-07 05:09:00,
2016-02-07 00:14:00,48.1,46.7,30.00,NW,315,3.5,3.5,95,0.01,CLR,,0.00,WeatherDisplay:10.37,2016-02-07 05:14:00,
2016-02-07 00:19:00,47.9,46.5,30.00,NNW,327,4.6,4.6,95,0.00,CLR,,0.00,WeatherDisplay:10.37,2016-02-07 05:19:00,
2016-02-07 00:29:00,47.7,46.3,30.01,NW,304,9.0,9.0,95,0.00,CLR,,0.00,WeatherDisplay:10.37,2016-02-07 05:29:00,
2016-02-07 00:39:00,47.5,46.1,30.00,WNW,291,4.0,4.0,95,0.00,CLR,,0.00,WeatherDisplay:10.37,2016-02-07 05:39:00,
2016-02-07 00:44:00,47.4,46.0,30.01,WNW,301,7.0,7.0,95,0.00,CLR,,0.00,WeatherDisplay:10.37,2016-02-07 05:44:00,
2016-02-07 00:54:00,47.1,45.7,30.01,WNW,283,8.1,8.1,95,0.00,CLR,,0.00,WeatherDisplay:10.37,2016-02-07 05:54:00,
2016-02-07 00:59:00,47.1,45.7,30.00,ESE,103,2.3,2.3,95,0.00,CLR,,0.00,WeatherDisplay:10.37,2016-02-07 05:59:00,
2016-02-07 01:04:00,46.9,45.5,30.01,NW,316,4.6,4.6,95,0.00,CLR,,0.00,WeatherDisplay:10.37,2016-02-07 06:04:00,
2016-02-07 01:09:00,46.9,45.5,30.01,WNW,302,10.4,10.4,95,0.00,CLR,,0.00,WeatherDisplay:10.37,2016-02-07 06:09:00,
2016-02-07 01:14:00,46.7,45.3,30.00,NW,317,2.3,2.4,95,0.00,CLR,,0.00,WeatherDisplay:10.37,2016-02-07 06:14:00,
2016-02-07 01:19:00,46.5,45.1,30.00,NW,306,5.8,5.8,95,0.00,CLR,,0.00,WeatherDisplay:10.37,2016-02-07 06:19:00,
2016-02-07 01:24:00,46.4,45.0,30.00,NW,304,8.1,8.1,95,0.00,CLR,,0.00,WeatherDisplay:10.37,2016-02-07 06:24:00,
2016-02-07 01:29:00,46.1,44.7,30.00,NW,321,9.2,9.2,95,0.00,CLR,,0.00,WeatherDisplay:10.37,2016-02-07 06:29:00,
2016-02-07 01:34:00,46.0,44.6,30.00,NW,305,15.0,15.0,95,0.00,CLR,,0.00,WeatherDisplay:10.37,2016-02-07 06:34:00,
2016-02-07 01:39:00,46.0,44.6,30.00,NW,316,11.5,11.5,95,0.00,CLR,,0.00,WeatherDisplay:10.37,2016-02-07 06:39:00,
2016-02-07 01:44:00,45.9,44.5,30.01,NW,304,5.8,5.8,95,0.00,CLR,,0.00,WeatherDisplay:10.37,2016-02-07 06:44:00,
2016-02-07 01:49:00,45.9,44.5,29.99,NNW,331,10.4,10.4,95,0.00,CLR,,0.00,WeatherDisplay:10.37,2016-02-07 06:49:00,
2016-02-07 01:54:00,45.8,44.4,30.00,NW,320,2.0,12.0,95,0.00,CLR,,0.00,WeatherDisplay:10.37,2016-02-07 06:54:00,
2016-02-07 01:59:00,45.6,44.3,30.00,WNW,295,5.8,5.8,95,0.00,CLR,,0.00,WeatherDisplay:10.37,2016-02-07 06:59:00,
2016-02-07 02:04:00,45.5,44.2,29.99,NNW,342,5.8,5.8,95,0.00,CLR,,0.00,WeatherDisplay:10.37,2016-02-07 07:04:00,
2016-02-07 02:09:00,45.2,43.6,30.00,NW,319,12.7,12.7,94,0.00,CLR,,0.00,WeatherDisplay:10.37,2016-02-07 07:09:00,
2016-02-07 02:14:00,45.0,43.4,29.99,NW,314,6.9,6.9,94,0.00,CLR,,0.00,WeatherDisplay:10.37,2016-02-07 07:14:00,
2016-02-07 02:19:00,44.9,43.3,29.98,NW,305,7.0,7.0,94,0.00,CLR,,0.00,WeatherDisplay:10.37,2016-02-07 07:19:00,
2016-02-07 02:24:00,44.8,43.2,29.99,NW,310,5.0,12.0,94,0.00,CLR,,0.00,WeatherDisplay:10.37,2016-02-07 07:24:00,
2016-02-07 02:29:00,44.7,43.4,29.99,NW,319,4.6,4.6,95,0.00,CLR,,0.00,WeatherDisplay:10.37,2016-02-07 07:29:00,
2016-02-07 02:34:00,44.4,43.1,29.99,North,349,10.4,10.4,95,0.00,CLR,,0.00,WeatherDisplay:10.37,2016-02-07 07:34:00,
2016-02-07 02:39:00,44.1,42.8,29.98,NW,312,5.0,15.0,95,0.00,CLR,,0.00,WeatherDisplay:10.37,2016-02-07 07:39:00,
2016-02-07 02:44:00,44.0,42.4,29.98,NW,312,6.0,8.0,94,0.00,CLR,,0.00,WeatherDisplay:10.37,2016-02-07 07:44:00,
2016-02-07 02:49:00,44.0,42.7,29.98,NW,319,6.0,7.9,95,0.00,CLR,,0.00,WeatherDisplay:10.37,2016-02-07 07:49:00,
2016-02-07 02:54:00,43.9,42.3,29.98,NW,307,5.0,13.0,94,0.00,CLR,,0.00,WeatherDisplay:10.37,2016-02-07 07:54:00,
2016-02-07 02:59:00,44.0,42.4,29.98,WNW,293,7.0,7.0,94,0.00,CLR,,0.00,WeatherDisplay:10.37,2016-02-07 07:59:00,
2016-02-07 03:04:00,44.1,42.5,29.98,NW,304,3.0,10.0,94,0.00,CLR,,0.00,WeatherDisplay:10.37,2016-02-07 08:04:00,
2016-02-07 03:09:00,44.1,42.5,29.98,NW,305,6.0,10.0,94,0.00,CLR,,0.00,WeatherDisplay:10.37,2016-02-07 08:09:00,
2016-02-07 03:19:00,44.2,42.6,29.97,NW,320,8.1,8.1,94,0.00,CLR,,0.00,WeatherDisplay:10.37,2016-02-07 08:19:00,
2016-02-07 03:24:00,44.1,42.5,29.97,NW,307,6.0,13.0,94,0.00,CLR,,0.00,WeatherDisplay:10.37,2016-02-07 08:24:00,
2016-02-07 03:29:00,44.1,42.5,29.97,NW,316,4.6,4.6,94,0.00,CLR,,0.00,WeatherDisplay:10.37,2016-02-07 08:29:00,
2016-02-07 03:34:00,44.1,42.5,29.97,NW,306,8.1,8.1,94,0.00,CLR,,0.00,WeatherDisplay:10.37,2016-02-07 08:34:00,
2016-02-07 03:39:00,44.0,42.4,29.97,NW,306,6.0,10.0,94,0.00,CLR,,0.00,WeatherDisplay:10.37,2016-02-07 08:39:00,
2016-02-07 03:44:00,44.1,42.4,29.97,NW,311,3.0,9.0,94,0.00,CLR,,0.00,WeatherDisplay:10.37,2016-02-07 08:44:00,
2016-02-07 03:49:00,44.0,42.4,29.98,NW,317,8.1,8.1,94,0.00,CLR,,0.00,WeatherDisplay:10.37,2016-02-07 08:49:00,
2016-02-07 03:59:00,44.0,42.4,29.98,WNW,303,9.2,9.2,94,0.00,CLR,,0.00,WeatherDisplay:10.37,2016-02-07 08:59:00,
2016-02-07 04:14:00,43.8,42.2,29.98,NW,309,7.0,10.0,94,0.00,CLR,,0.00,WeatherDisplay:10.37,2016-02-07 09:14:00,
2016-02-07 04:19:00,43.7,42.1,29.97,WNW,301,8.1,8.1,94,0.00,CLR,,0.00,WeatherDisplay:10.37,2016-02-07 09:19:00,
2016-02-07 04:24:00,43.7,42.1,29.97,NW,311,11.5,11.5,94,0.00,CLR,,0.00,WeatherDisplay:10.37,2016-02-07 09:24:00,
2016-02-07 04:29:00,43.7,42.1,29.97,WNW,301,3.5,3.5,94,0.00,CLR,,0.00,WeatherDisplay:10.37,2016-02-07 09:29:00,
2016-02-07 04:34:00,43.7,42.1,29.97,NW,324,11.5,11.5,94,0.00,CLR,,0.00,WeatherDisplay:10.37,2016-02-07 09:34:00,
2016-02-07 04:39:00,43.7,42.1,29.97,NW,322,3.5,3.5,94,0.00,CLR,,0.00,WeatherDisplay:10.37,2016-02-07 09:39:00,
2016-02-07 04:44:00,43.7,42.1,29.97,WNW,293,6.9,6.9,94,0.00,CLR,,0.00,WeatherDisplay:10.37,2016-02-07 09:44:00,
2016-02-07 04:49:00,43.7,42.1,29.97,WNW,295,5.8,5.8,94,0.00,CLR,,0.00,WeatherDisplay:10.37,2016-02-07 09:49:00,
2016-02-07 04:54:00,43.6,42.0,29.97,WNW,297,8.1,8.1,94,0.00,CLR,,0.00,WeatherDisplay:10.37,2016-02-07 09:54:00,
2016-02-07 04:59:00,43.6,42.0,29.96,NW,311,3.5,3.5,94,0.00,CLR,,0.00,WeatherDisplay:10.37,2016-02-07 09:59:00,
2016-02-07 05:04:00,43.6,42.0,29.95,NNW,336,3.5,3.5,94,0.00,CLR,,0.00,WeatherDisplay:10.37,2016-02-07 10:04:00,
2016-02-07 05:09:00,43.6,42.0,29.95,WNW,284,12.7,12.7,94,0.00,CLR,,0.00,WeatherDisplay:10.37,2016-02-07 10:09:00,
2016-02-07 05:14:00,43.5,41.9,29.95,West,274,10.4,10.4,94,0.00,CLR,,0.00,WeatherDisplay:10.37,2016-02-07 10:14:00,
2016-02-07 05:24:00,43.5,41.9,29.94,North,351,4.6,6.7,94,0.00,CLR,,0.00,WeatherDisplay:10.37,2016-02-07 10:24:00,
2016-02-07 05:34:00,43.5,41.9,29.95,North,360,11.5,11.5,94,0.00,CLR,,0.00,WeatherDisplay:10.37,2016-02-07 10:34:00,
2016-02-07 05:39:00,43.5,41.9,29.96,NNW,327,6.9,6.9,94,0.00,CLR,,0.00,WeatherDisplay:10.37,2016-02-07 10:39:00,
2016-02-07 05:49:00,43.5,41.6,29.97,NW,314,12.7,12.7,93,0.00,CLR,,0.00,WeatherDisplay:10.37,2016-02-07 10:49:00,
2016-02-07 05:59:00,43.5,41.6,29.96,WNW,295,4.6,4.6,93,0.00,CLR,,0.00,WeatherDisplay:10.37,2016-02-07 10:59:00,
2016-02-07 06:04:00,43.6,41.7,29.95,North,352,6.9,6.9,93,0.00,CLR,,0.00,WeatherDisplay:10.37,2016-02-07 11:04:00,
2016-02-07 06:09:00,43.7,42.1,29.95,NNW,342,2.3,2.3,94,0.00,CLR,,0.00,WeatherDisplay:10.37,2016-02-07 11:09:00,
2016-02-07 06:14:00,43.5,41.6,29.97,WNW,300,6.9,6.9,93,0.00,CLR,,0.00,WeatherDisplay:10.37,2016-02-07 11:14:00,
2016-02-07 06:19:00,43.4,41.5,29.97,North,356,11.5,11.5,93,0.00,CLR,,0.00,WeatherDisplay:10.37,2016-02-07 11:19:00,
2016-02-07 06:24:00,43.4,41.5,29.97,NW,326,8.1,8.1,93,0.00,CLR,,0.00,WeatherDisplay:10.37,2016-02-07 11:24:00,
2016-02-07 06:29:00,43.3,41.4,29.98,WNW,302,6.9,6.9,93,0.00,CLR,,0.00,WeatherDisplay:10.37,2016-02-07 11:29:00,
2016-02-07 06:34:00,43.4,41.5,29.98,NNW,328,13.8,13.8,93,0.00,CLR,,0.00,WeatherDisplay:10.37,2016-02-07 11:34:00,
2016-02-07 06:39:00,43.5,41.6,29.99,WNW,299,8.1,8.1,93,0.00,CLR,,0.00,WeatherDisplay:10.37,2016-02-07 11:39:00,
2016-02-07 06:44:00,43.5,41.6,29.99,WNW,301,8.1,8.1,93,0.00,CLR,,0.00,WeatherDisplay:10.37,2016-02-07 11:44:00,
2016-02-07 06:49:00,43.6,41.7,30.00,WNW,299,8.1,8.1,93,0.00,CLR,,0.00,WeatherDisplay:10.37,2016-02-07 11:49:00,
2016-02-07 06:54:00,43.7,41.8,29.99,NW,308,6.0,6.0,93,0.00,CLR,,0.00,WeatherDisplay:10.37,2016-02-07 11:54:00,
2016-02-07 06:59:00,43.7,41.8,30.00,WNW,298,9.2,9.2,93,0.00,CLR,,0.00,WeatherDisplay:10.37,2016-02-07 11:59:00,
2016-02-07 07:04:00,43.9,42.0,29.99,WNW,283,9.2,9.2,93,0.00,CLR,,0.00,WeatherDisplay:10.37,2016-02-07 12:04:00,
2016-02-07 07:09:00,44.0,42.1,29.99,WNW,296,11.5,11.5,93,0.00,CLR,,0.00,WeatherDisplay:10.37,2016-02-07 12:09:00,
2016-02-07 07:14:00,44.0,42.1,29.99,NW,311,8.0,8.0,93,0.00,CLR,,0.00,WeatherDisplay:10.37,2016-02-07 12:14:00,
2016-02-07 07:19:00,44.0,42.1,29.99,NW,305,10.0,10.0,93,0.00,CLR,,0.00,WeatherDisplay:10.37,2016-02-07 12:19:00,
2016-02-07 07:24:00,44.0,42.1,29.99,NW,317,10.4,10.4,93,0.00,CLR,,0.00,WeatherDisplay:10.37,2016-02-07 12:24:00,
2016-02-07 07:29:00,44.1,42.2,29.99,NW,326,5.8,5.8,93,0.00,CLR,,0.00,WeatherDisplay:10.37,2016-02-07 12:29:00,
2016-02-07 07:44:00,44.3,42.4,30.00,NW,309,8.1,8.1,93,0.00,CLR,,0.00,WeatherDisplay:10.37,2016-02-07 12:44:00,
2016-02-07 07:49:00,44.3,42.4,29.99,NW,307,5.0,5.0,93,0.00,CLR,,0.00,WeatherDisplay:10.37,2016-02-07 12:49:00,
2016-02-07 07:54:00,44.4,42.5,29.99,NW,306,11.5,11.5,93,0.00,CLR,,0.00,WeatherDisplay:10.37,2016-02-07 12:54:00,
2016-02-07 07:59:00,44.4,42.5,30.00,WNW,297,16.1,16.1,93,0.00,CLR,,0.00,WeatherDisplay:10.37,2016-02-07 12:59:00,
2016-02-07 08:04:00,44.5,42.6,30.01,NW,312,7.0,13.0,93,0.00,CLR,,0.00,WeatherDisplay:10.37,2016-02-07 13:04:00,
2016-02-07 08:09:00,44.6,42.7,30.01,NW,313,11.5,11.5,93,0.00,CLR,,0.00,WeatherDisplay:10.37,2016-02-07 13:09:00,
2016-02-07 08:14:00,44.7,42.8,30.00,WNW,300,7.0,7.0,93,0.00,CLR,,0.00,WeatherDisplay:10.37,2016-02-07 13:14:00,
2016-02-07 08:19:00,44.7,42.8,30.00,NW,322,11.5,11.5,93,0.00,CLR,,0.00,WeatherDisplay:10.37,2016-02-07 13:19:00,
2016-02-07 08:24:00,44.7,42.8,30.01,NW,310,8.0,12.0,93,0.00,CLR,,0.00,WeatherDisplay:10.37,2016-02-07 13:24:00,
2016-02-07 08:34:00,44.6,42.7,30.02,NW,309,8.0,20.0,93,0.00,CLR,,0.00,WeatherDisplay:10.37,2016-02-07 13:34:00,
2016-02-07 08:39:00,44.6,42.7,30.02,NW,316,8.1,8.1,93,0.00,CLR,,0.00,WeatherDisplay:10.37,2016-02-07 13:39:00,
2016-02-07 08:44:00,44.6,42.7,30.02,NW,308,3.0,15.0,93,0.00,CLR,,0.00,WeatherDisplay:10.37,2016-02-07 13:44:00,
2016-02-07 08:49:00,44.6,42.7,30.03,NW,306,7.0,7.0,93,0.00,CLR,,0.00,WeatherDisplay:10.37,2016-02-07 13:49:00,
2016-02-07 08:54:00,44.4,42.5,30.03,WNW,298,13.8,13.8,93,0.00,CLR,,0.00,WeatherDisplay:10.37,2016-02-07 13:54:00,
2016-02-07 08:59:00,44.1,42.2,30.03,NNW,340,15.0,15.0,93,0.00,CLR,,0.00,WeatherDisplay:10.37,2016-02-07 13:59:00,
2016-02-07 09:09:00,43.9,42.0,30.04,NW,311,8.1,8.1,93,0.00,CLR,,0.00,WeatherDisplay:10.37,2016-02-07 14:09:00,
2016-02-07 09:14:00,43.9,42.3,30.04,WNW,285,9.2,9.2,94,0.00,CLR,,0.00,WeatherDisplay:10.37,2016-02-07 14:14:00,
2016-02-07 09:19:00,43.9,42.3,30.04,NW,316,6.9,6.9,94,0.00,CLR,,0.00,WeatherDisplay:10.37,2016-02-07 14:19:00,
2016-02-07 09:24:00,43.9,42.3,30.04,NW,307,6.0,12.0,94,0.00,CLR,,0.00,WeatherDisplay:10.37,2016-02-07 14:24:00,
2016-02-07 09:34:00,44.1,42.2,30.04,NW,315,6.0,12.0,93,0.00,CLR,,0.00,WeatherDisplay:10.37,2016-02-07 14:34:00,
2016-02-07 09:39:00,44.3,42.4,30.04,NW,304,4.6,4.6,93,0.00,CLR,,0.00,WeatherDisplay:10.37,2016-02-07 14:39:00,
2016-02-07 09:44:00,44.4,42.2,30.04,NNW,332,2.0,8.0,92,0.00,CLR,,0.00,WeatherDisplay:10.37,2016-02-07 14:44:00,
2016-02-07 09:49:00,44.4,41.9,30.05,NW,319,5.0,9.0,91,0.00,CLR,,0.00,WeatherDisplay:10.37,2016-02-07 14:49:00,
2016-02-07 09:54:00,44.4,41.9,30.05,NW,309,6.0,10.0,91,0.00,CLR,,0.00,WeatherDisplay:10.37,2016-02-07 14:54:00,
2016-02-07 09:59:00,44.1,41.4,30.06,NNW,327,11.5,11.5,90,0.00,CLR,,0.00,WeatherDisplay:10.37,2016-02-07 14:59:00,
2016-02-07 10:04:00,44.1,41.4,30.05,NW,309,6.0,15.0,90,0.00,CLR,,0.00,WeatherDisplay:10.37,2016-02-07 15:04:00,
2016-02-07 10:09:00,44.1,41.4,30.06,NNE,32,10.4,10.4,90,0.00,CLR,,0.00,WeatherDisplay:10.37,2016-02-07 15:09:00,
2016-02-07 10:14:00,44.1,41.4,30.06,WNW,300,8.1,8.1,90,0.00,CLR,,0.00,WeatherDisplay:10.37,2016-02-07 15:14:00,
2016-02-07 10:19:00,44.1,41.4,30.05,NNW,344,11.5,11.5,90,0.00,CLR,,0.00,WeatherDisplay:10.37,2016-02-07 15:19:00,
2016-02-07 10:24:00,44.1,41.4,30.06,NW,310,7.0,12.0,90,0.00,CLR,,0.00,WeatherDisplay:10.37,2016-02-07 15:24:00,
2016-02-07 10:29:00,44.1,41.6,30.05,NW,313,10.4,10.4,91,0.00,CLR,,0.00,WeatherDisplay:10.37,2016-02-07 15:29:00,
2016-02-07 10:34:00,44.1,41.4,30.06,NW,308,5.0,10.0,90,0.00,CLR,,0.00,WeatherDisplay:10.37,2016-02-07 15:34:00,
2016-02-07 10:39:00,44.2,41.5,30.06,NW,308,5.8,5.8,90,0.00,CLR,,0.00,WeatherDisplay:10.37,2016-02-07 15:39:00,
2016-02-07 10:44:00,44.4,41.6,30.06,NW,310,5.0,12.0,90,0.00,CLR,,0.00,WeatherDisplay:10.37,2016-02-07 15:44:00,
2016-02-07 10:54:00,45.4,42.0,30.06,NNW,330,5.0,8.0,88,0.00,CLR,,0.00,WeatherDisplay:10.37,2016-02-07 15:54:00,
2016-02-07 10:59:00,45.7,42.1,30.06,NW,323,11.5,11.5,87,0.00,CLR,,0.00,WeatherDisplay:10.37,2016-02-07 15:59:00,
2016-02-07 11:04:00,45.9,41.7,30.06,NW,313,3.0,13.0,85,0.00,CLR,,0.00,WeatherDisplay:10.37,2016-02-07 16:04:00,
2016-02-07 11:09:00,46.4,42.4,30.06,NW,313,6.0,12.0,86,0.00,CLR,,0.00,WeatherDisplay:10.37,2016-02-07 16:09:00,
2016-02-07 11:14:00,46.7,42.1,30.05,NW,314,3.0,12.0,84,0.00,CLR,,0.00,WeatherDisplay:10.37,2016-02-07 16:14:00,
2016-02-07 11:19:00,47.1,42.2,30.05,NW,308,6.0,14.0,83,0.00,CLR,,0.00,WeatherDisplay:10.37,2016-02-07 16:19:00,
2016-02-07 11:29:00,47.7,41.8,30.05,WNW,295,8.1,8.1,80,0.00,CLR,,0.00,WeatherDisplay:10.37,2016-02-07 16:29:00,
2016-02-07 11:34:00,48.3,42.4,30.05,NW,306,2.0,9.0,80,0.00,CLR,,0.00,WeatherDisplay:10.37,2016-02-07 16:34:00,
2016-02-07 11:39:00,48.7,42.5,30.04,WNW,300,10.4,10.4,79,0.00,CLR,,0.00,WeatherDisplay:10.37,2016-02-07 16:39:00,
2016-02-07 11:44:00,49.3,42.7,30.04,NW,324,6.0,13.0,78,0.00,CLR,,0.00,WeatherDisplay:10.37,2016-02-07 16:44:00,
2016-02-07 11:54:00,49.9,42.3,30.04,NW,309,8.0,14.0,75,0.00,CLR,,0.00,WeatherDisplay:10.37,2016-02-07 16:54:00,
2016-02-07 11:59:00,50.2,42.2,30.04,West,272,13.8,13.8,74,0.00,CLR,,0.00,WeatherDisplay:10.37,2016-02-07 16:59:00,
2016-02-07 12:04:00,50.5,42.5,30.03,WNW,303,7.0,13.0,74,0.00,CLR,,0.00,WeatherDisplay:10.37,2016-02-07 17:04:00,
2016-02-07 12:14:00,51.4,43.0,30.02,NW,312,7.0,13.0,73,0.00,CLR,,0.00,WeatherDisplay:10.37,2016-02-07 17:14:00,
2016-02-07 12:15:00,51.4,42.7,30.02,NNW,333,12.7,12.7,72,0.00,CLR,,0.00,WeatherDisplay:10.37,2016-02-07 17:15:00,
2016-02-07 12:20:00,51.7,43.0,30.02,NW,305,12.7,12.7,72,0.00,CLR,,0.00,WeatherDisplay:10.37,2016-02-07 17:20:00,
2016-02-07 12:25:00,51.7,42.2,30.01,WNW,295,10.4,10.4,70,0.00,CLR,,0.00,WeatherDisplay:10.37,2016-02-07 17:25:00,
2016-02-07 12:30:00,52.4,42.9,30.01,West,266,8.1,8.1,70,0.00,CLR,,0.00,WeatherDisplay:10.37,2016-02-07 17:30:00,
2016-02-07 12:35:00,53.1,43.6,30.00,WNW,300,10.4,10.4,70,0.00,CLR,,0.00,WeatherDisplay:10.37,2016-02-07 17:35:00,
2016-02-07 12:40:00,53.2,43.7,30.00,WNW,297,9.2,9.2,70,0.00,CLR,,0.00,WeatherDisplay:10.37,2016-02-07 17:40:00,
2016-02-07 12:45:00,53.6,42.9,30.00,NW,324,10.4,10.4,67,0.00,CLR,,0.00,WeatherDisplay:10.37,2016-02-07 17:45:00,
2016-02-07 12:50:00,53.2,42.1,30.00,WNW,292,12.7,12.7,66,0.00,CLR,,0.00,WeatherDisplay:10.37,2016-02-07 17:50:00,
2016-02-07 12:55:00,53.4,42.3,29.99,WNW,302,15.0,15.0,66,0.00,CLR,,0.00,WeatherDisplay:10.37,2016-02-07 17:55:00,
2016-02-07 13:00:00,53.4,41.1,29.99,WNW,303,12.7,12.7,63,0.00,CLR,,0.00,WeatherDisplay:10.37,2016-02-07 18:00:00,
2016-02-07 13:05:00,53.7,41.8,29.99,WNW,300,12.7,12.7,64,0.00,CLR,,0.00,WeatherDisplay:10.37,2016-02-07 18:05:00,
2016-02-07 13:10:00,54.1,41.4,29.98,WNW,300,11.5,11.5,62,0.00,CLR,,0.00,WeatherDisplay:10.37,2016-02-07 18:10:00,
2016-02-07 13:15:00,54.4,41.2,29.98,WNW,300,16.1,16.1,61,0.00,CLR,,0.00,WeatherDisplay:10.37,2016-02-07 18:15:00,
2016-02-07 13:20:00,54.5,41.3,29.98,WNW,297,16.1,16.1,61,0.00,CLR,,0.00,WeatherDisplay:10.37,2016-02-07 18:20:00,
2016-02-07 13:30:00,54.8,41.6,29.98,NNE,27,12.7,12.7,61,0.00,CLR,,0.00,WeatherDisplay:10.37,2016-02-07 18:30:00,
2016-02-07 13:35:00,55.0,41.8,29.97,NW,325,12.7,12.7,61,0.00,CLR,,0.00,WeatherDisplay:10.37,2016-02-07 18:35:00,
2016-02-07 13:45:00,55.5,41.4,29.97,NW,320,11.5,11.5,59,0.00,CLR,,0.00,WeatherDisplay:10.37,2016-02-07 18:45:00,
2016-02-07 13:50:00,55.7,41.1,29.97,NW,305,12.7,12.7,58,0.00,CLR,,0.00,WeatherDisplay:10.37,2016-02-07 18:50:00,
2016-02-07 13:55:00,55.5,40.5,29.97,WNW,301,11.5,11.5,57,0.00,CLR,,0.00,WeatherDisplay:10.37,2016-02-07 18:55:00,
2016-02-07 14:00:00,55.7,40.7,29.97,NW,309,13.8,13.8,57,0.00,CLR,,0.00,WeatherDisplay:10.37,2016-02-07 19:00:00,
2016-02-07 14:05:00,56.2,41.6,29.97,West,281,11.5,11.5,58,0.00,CLR,,0.00,WeatherDisplay:10.37,2016-02-07 19:05:00,
2016-02-07 14:10:00,56.6,42.4,29.97,WNW,299,9.2,9.2,59,0.00,CLR,,0.00,WeatherDisplay:10.37,2016-02-07 19:10:00,
2016-02-07 14:15:00,56.6,40.1,29.97,WNW,302,9.2,9.2,54,0.00,CLR,,0.00,WeatherDisplay:10.37,2016-02-07 19:15:00,
2016-02-07 14:20:00,56.4,39.5,29.96,NW,307,13.8,13.8,53,0.00,CLR,,0.00,WeatherDisplay:10.37,2016-02-07 19:20:00,
2016-02-07 14:25:00,56.6,40.1,29.96,WNW,299,9.2,9.2,54,0.00,CLR,,0.00,WeatherDisplay:10.37,2016-02-07 19:25:00,
2016-02-07 14:30:00,56.6,40.1,29.96,WNW,292,11.5,11.5,54,0.00,CLR,,0.00,WeatherDisplay:10.37,2016-02-07 19:30:00,
2016-02-07 14:35:00,56.6,39.2,29.96,NW,317,12.7,12.7,52,0.00,CLR,,0.00,WeatherDisplay:10.37,2016-02-07 19:35:00,
2016-02-07 14:40:00,56.7,39.7,29.96,NW,321,10.4,10.4,53,0.00,CLR,,0.00,WeatherDisplay:10.37,2016-02-07 19:40:00,
2016-02-07 14:45:00,56.8,38.9,29.95,NW,309,6.9,6.9,51,0.00,CLR,,0.00,WeatherDisplay:10.37,2016-02-07 19:45:00,
2016-02-07 14:50:00,56.6,37.6,29.96,NW,319,16.1,16.1,49,0.00,CLR,,0.00,WeatherDisplay:10.37,2016-02-07 19:50:00,
2016-02-07 14:55:00,56.7,39.3,29.96,WNW,303,10.4,10.4,52,0.00,CLR,,0.00,WeatherDisplay:10.37,2016-02-07 19:55:00,
2016-02-07 15:00:00,56.7,39.3,29.96,NNW,339,8.1,8.1,52,0.00,CLR,,0.00,WeatherDisplay:10.37,2016-02-07 20:00:00,
2016-02-07 15:05:00,56.8,38.9,29.95,NW,311,10.4,10.4,51,0.00,CLR,,0.00,WeatherDisplay:10.37,2016-02-07 20:05:00,
2016-02-07 15:10:00,56.9,38.9,29.95,NW,313,8.1,8.1,51,0.00,CLR,,0.00,WeatherDisplay:10.37,2016-02-07 20:10:00,
2016-02-07 15:15:00,56.7,38.3,29.95,North,359,10.4,10.4,50,0.00,CLR,,0.00,WeatherDisplay:10.37,2016-02-07 20:15:00,
2016-02-07 15:20:00,56.6,37.6,29.95,NW,310,12.7,12.7,49,0.00,CLR,,0.00,WeatherDisplay:10.37,2016-02-07 20:20:00,
2016-02-07 15:25:00,56.8,38.3,29.95,WNW,293,9.2,9.2,50,0.00,CLR,,0.00,WeatherDisplay:10.37,2016-02-07 20:25:00,
2016-02-07 15:30:00,56.9,36.9,29.95,WNW,299,11.0,11.0,47,0.00,CLR,,0.00,WeatherDisplay:10.37,2016-02-07 20:30:00,
2016-02-07 15:35:00,57.2,38.2,29.95,NW,307,11.5,11.5,49,0.00,CLR,,0.00,WeatherDisplay:10.37,2016-02-07 20:35:00,
2016-02-07 15:40:00,57.4,36.8,29.95,NNE,23,15.0,15.0,46,0.00,CLR,,0.00,WeatherDisplay:10.37,2016-02-07 20:40:00,
2016-02-07 15:45:00,56.8,36.2,29.95,NNW,328,17.3,17.3,46,0.00,CLR,,0.00,WeatherDisplay:10.37,2016-02-07 20:45:00,
2016-02-07 15:50:00,57.0,37.0,29.95,NNW,337,10.4,10.4,47,0.00,CLR,,0.00,WeatherDisplay:10.37,2016-02-07 20:50:00,
2016-02-07 15:55:00,57.2,36.6,29.96,West,277,9.2,9.2,46,0.00,CLR,,0.00,WeatherDisplay:10.37,2016-02-07 20:55:00,
2016-02-07 16:00:00,57.0,35.9,29.96,NW,304,9.2,9.2,45,0.00,CLR,,0.00,WeatherDisplay:10.37,2016-02-07 21:00:00,
2016-02-07 16:05:00,57.0,36.4,29.96,NW,307,9.2,9.2,46,0.00,CLR,,0.00,WeatherDisplay:10.37,2016-02-07 21:05:00,
2016-02-07 16:10:00,57.0,36.4,29.95,NW,309,15.0,15.0,46,0.00,CLR,,0.00,WeatherDisplay:10.37,2016-02-07 21:10:00,
2016-02-07 16:25:00,56.8,36.8,29.96,NNW,341,8.1,8.1,47,0.00,CLR,,0.00,WeatherDisplay:10.37,2016-02-07 21:25:00,
2016-02-07 16:30:00,57.3,37.2,29.96,WNW,292,5.8,5.8,47,0.00,CLR,,0.00,WeatherDisplay:10.37,2016-02-07 21:30:00,
2016-02-07 16:35:00,57.3,37.2,29.96,NW,304,4.6,4.6,47,0.00,CLR,,0.00,WeatherDisplay:10.37,2016-02-07 21:35:00,
2016-02-07 16:40:00,56.9,35.8,29.96,NW,304,10.4,10.4,45,0.00,CLR,,0.00,WeatherDisplay:10.37,2016-02-07 21:40:00,
2016-02-07 16:45:00,56.7,35.6,29.95,WNW,301,6.9,6.9,45,0.00,CLR,,0.00,WeatherDisplay:10.37,2016-02-07 21:45:00,
2016-02-07 16:55:00,56.5,35.4,29.95,NW,311,9.2,9.2,45,0.00,CLR,,0.00,WeatherDisplay:10.37,2016-02-07 21:55:00,
2016-02-07 17:00:00,56.5,35.4,29.96,NW,318,12.0,12.0,45,0.00,CLR,,0.00,WeatherDisplay:10.37,2016-02-07 22:00:00,
2016-02-07 17:05:00,56.3,34.6,29.96,NW,308,11.5,11.5,44,0.00,CLR,,0.00,WeatherDisplay:10.37,2016-02-07 22:05:00,
2016-02-07 17:10:00,56.0,34.4,29.96,NNW,347,10.4,10.4,44,0.00,CLR,,0.00,WeatherDisplay:10.37,2016-02-07 22:10:00,
2016-02-07 17:15:00,56.0,33.8,29.96,NNW,328,7.0,7.0,43,0.00,CLR,,0.00,WeatherDisplay:10.37,2016-02-07 22:15:00,
2016-02-07 17:20:00,55.8,34.8,29.97,WNW,298,5.8,5.8,45,0.00,CLR,,0.00,WeatherDisplay:10.37,2016-02-07 22:20:00,
2016-02-07 17:25:00,55.7,35.2,29.97,NW,305,5.8,5.8,46,0.00,CLR,,0.00,WeatherDisplay:10.37,2016-02-07 22:25:00,
2016-02-07 17:30:00,55.5,35.0,29.97,NW,310,7.0,7.0,46,0.00,CLR,,0.00,WeatherDisplay:10.37,2016-02-07 22:30:00,
2016-02-07 17:35:00,55.0,35.7,29.98,NW,308,3.5,3.5,48,0.00,CLR,,0.00,WeatherDisplay:10.37,2016-02-07 22:35:00,
2016-02-07 17:40:00,54.5,35.7,29.98,NW,304,3.5,3.5,49,0.00,CLR,,0.00,WeatherDisplay:10.37,2016-02-07 22:40:00,
2016-02-07 17:45:00,54.1,35.9,29.98,NW,317,3.5,3.5,50,0.00,CLR,,0.00,WeatherDisplay:10.37,2016-02-07 22:45:00,
2016-02-07 17:50:00,53.7,35.5,29.98,NW,306,4.6,4.6,50,0.00,CLR,,0.00,WeatherDisplay:10.37,2016-02-07 22:50:00,
2016-02-07 17:55:00,53.3,35.6,29.98,NW,326,8.1,8.1,51,0.00,CLR,,0.00,WeatherDisplay:10.37,2016-02-07 22:55:00,
2016-02-07 18:00:00,52.8,35.2,29.98,NNW,333,3.5,3.5,51,0.00,CLR,,0.00,WeatherDisplay:10.37,2016-02-07 23:00:00,
2016-02-07 18:05:00,52.4,34.8,29.98,NW,314,3.5,3.5,51,0.00,CLR,,0.00,WeatherDisplay:10.37,2016-02-07 23:05:00,
2016-02-07 18:10:00,52.0,34.9,29.99,NW,311,3.5,3.5,52,0.00,CLR,,0.00,WeatherDisplay:10.37,2016-02-07 23:10:00,
2016-02-07 18:15:00,51.5,35.4,29.99,NW,307,2.0,2.0,54,0.00,CLR,,0.00,WeatherDisplay:10.37,2016-02-07 23:15:00,
2016-02-07 18:20:00,50.9,34.8,29.99,NW,319,0.0,0.0,54,0.00,CLR,,0.00,WeatherDisplay:10.37,2016-02-07 23:20:00,
2016-02-07 18:25:00,50.6,34.6,29.99,NW,323,1.0,1.0,54,0.00,CLR,,0.00,WeatherDisplay:10.37,2016-02-07 23:25:00,
2016-02-07 18:30:00,50.4,34.4,30.00,NW,311,1.2,1.2,54,0.00,CLR,,0.00,WeatherDisplay:10.37,2016-02-07 23:30:00,
2016-02-07 18:35:00,50.1,34.5,30.00,NW,322,0.0,0.8,55,0.00,CLR,,0.00,WeatherDisplay:10.37,2016-02-07 23:35:00,
2016-02-07 18:40:00,49.8,34.7,30.00,NW,323,1.0,1.0,56,0.00,CLR,,0.00,WeatherDisplay:10.37,2016-02-07 23:40:00,
2016-02-07 18:45:00,49.4,35.2,30.00,NW,323,0.0,0.0,58,0.00,CLR,,0.00,WeatherDisplay:10.37,2016-02-07 23:45:00,
2016-02-07 18:55:00,48.3,38.2,30.00,NW,323,0.0,0.0,68,0.00,CLR,,0.00,WeatherDisplay:10.37,2016-02-07 23:55:00,
2016-02-07 19:00:00,47.6,38.3,30.00,NW,323,0.0,0.0,70,0.00,CLR,,0.00,WeatherDisplay:10.37,2016-02-08 00:00:00,
2016-02-07 19:05:00,47.1,38.9,30.01,NW,316,0.0,0.0,73,0.00,CLR,,0.00,WeatherDisplay:10.37,2016-02-08 00:05:00,
2016-02-07 19:10:00,46.7,38.5,30.01,NW,317,0.0,0.0,73,0.00,CLR,,0.00,WeatherDisplay:10.37,2016-02-08 00:10:00,
2016-02-07 19:15:00,46.3,38.5,30.01,NW,316,0.0,0.0,74,0.00,CLR,,0.00,WeatherDisplay:10.37,2016-02-08 00:15:00,
2016-02-07 19:20:00,46.0,38.9,30.02,NW,317,0.0,0.0,76,0.00,CLR,,0.00,WeatherDisplay:10.37,2016-02-08 00:20:00,
2016-02-07 19:25:00,45.5,38.7,30.02,NW,316,0.0,0.0,77,0.00,CLR,,0.00,WeatherDisplay:10.37,2016-02-08 00:25:00,
2016-02-07 19:30:00,44.9,38.5,30.03,NW,317,0.0,0.0,78,0.00,CLR,,0.00,WeatherDisplay:10.37,2016-02-08 00:30:00,
2016-02-07 19:35:00,44.4,38.3,30.03,NW,316,0.0,0.0,79,0.00,CLR,,0.00,WeatherDisplay:10.37,2016-02-08 00:35:00,
2016-02-07 19:40:00,43.9,38.4,30.03,NW,316,0.0,0.0,81,0.00,CLR,,0.00,WeatherDisplay:10.37,2016-02-08 00:40:00,
2016-02-07 19:45:00,43.9,38.1,30.03,NW,317,0.0,0.0,80,0.00,CLR,,0.00,WeatherDisplay:10.37,2016-02-08 00:45:00,
2016-02-07 19:55:00,43.7,37.9,30.03,NW,317,0.0,0.0,80,0.00,CLR,,0.00,WeatherDisplay:10.37,2016-02-08 00:55:00,
2016-02-07 20:05:00,43.8,37.4,30.03,NW,317,0.0,0.0,78,0.00,CLR,,0.00,WeatherDisplay:10.37,2016-02-08 01:05:00,
2016-02-07 20:10:00,43.9,37.8,30.03,WNW,288,0.0,0.0,79,0.00,CLR,,0.00,WeatherDisplay:10.37,2016-02-08 01:10:00,
2016-02-07 20:15:00,43.8,38.3,30.04,WNW,288,0.0,0.0,81,0.00,CLR,,0.00,WeatherDisplay:10.37,2016-02-08 01:15:00,
2016-02-07 20:20:00,43.6,38.5,30.04,WNW,288,0.0,0.0,82,0.00,CLR,,0.00,WeatherDisplay:10.37,2016-02-08 01:20:00,
2016-02-07 20:25:00,43.4,37.6,30.04,WNW,288,0.0,0.0,80,0.00,CLR,,0.00,WeatherDisplay:10.37,2016-02-08 01:25:00,
2016-02-07 20:30:00,43.5,37.7,30.04,WNW,288,0.0,0.0,80,0.00,CLR,,0.00,WeatherDisplay:10.37,2016-02-08 01:30:00,
2016-02-07 20:35:00,43.5,37.1,30.04,WNW,288,0.0,0.0,78,0.00,CLR,,0.00,WeatherDisplay:10.37,2016-02-08 01:35:00,
2016-02-07 20:40:00,43.4,38.0,30.04,WNW,288,0.0,0.0,81,0.00,CLR,,0.00,WeatherDisplay:10.37,2016-02-08 01:40:00,
2016-02-07 20:45:00,43.0,38.2,30.04,WNW,288,0.0,0.0,83,0.00,CLR,,0.00,WeatherDisplay:10.37,2016-02-08 01:45:00,
2016-02-07 20:50:00,42.7,37.6,30.05,WNW,288,0.0,0.0,82,0.00,CLR,,0.00,WeatherDisplay:10.37,2016-02-08 01:50:00,
2016-02-07 20:55:00,42.6,37.5,30.04,WNW,288,0.0,0.0,82,0.00,CLR,,0.00,WeatherDisplay:10.37,2016-02-08 01:55:00,
2016-02-07 21:00:00,42.5,37.7,30.04,WNW,288,0.0,0.0,83,0.00,CLR,,0.00,WeatherDisplay:10.37,2016-02-08 02:00:00,
2016-02-07 21:05:00,42.4,37.3,30.05,WNW,288,0.0,0.0,82,0.00,CLR,,0.00,WeatherDisplay:10.37,2016-02-08 02:05:00,
2016-02-07 21:10:00,42.3,36.6,30.05,WNW,288,0.0,0.0,80,0.00,CLR,,0.00,WeatherDisplay:10.37,2016-02-08 02:10:00,
2016-02-07 21:15:00,42.2,37.1,30.05,WNW,288,0.0,0.0,82,0.00,CLR,,0.00,WeatherDisplay:10.37,2016-02-08 02:15:00,
2016-02-07 21:20:00,42.1,37.6,30.05,WNW,288,0.0,0.0,84,0.00,CLR,,0.00,WeatherDisplay:10.37,2016-02-08 02:20:00,
2016-02-07 21:25:00,42.1,37.3,30.05,WNW,288,0.0,0.0,83,0.00,CLR,,0.00,WeatherDisplay:10.37,2016-02-08 02:25:00,
2016-02-07 21:30:00,42.2,37.7,30.06,WNW,284,0.0,0.0,84,0.00,CLR,,0.00,WeatherDisplay:10.37,2016-02-08 02:30:00,
2016-02-07 21:35:00,42.0,37.5,30.06,WNW,286,0.0,0.0,84,0.00,CLR,,0.00,WeatherDisplay:10.37,2016-02-08 02:35:00,
2016-02-07 21:40:00,42.2,36.8,30.06,WNW,283,0.0,0.0,81,0.00,CLR,,0.00,WeatherDisplay:10.37,2016-02-08 02:40:00,
2016-02-07 21:50:00,42.8,36.4,30.06,WNW,296,0.0,0.1,78,0.00,CLR,,0.00,WeatherDisplay:10.37,2016-02-08 02:50:00,
2016-02-07 21:55:00,42.9,36.5,30.06,WNW,295,0.0,0.2,78,0.00,CLR,,0.00,WeatherDisplay:10.37,2016-02-08 02:55:00,
2016-02-07 22:00:00,42.8,36.4,30.07,WNW,295,0.0,0.0,78,0.00,CLR,,0.00,WeatherDisplay:10.37,2016-02-08 03:00:00,
2016-02-07 22:10:00,42.5,36.4,30.07,WNW,294,0.0,0.0,79,0.00,CLR,,0.00,WeatherDisplay:10.37,2016-02-08 03:10:00,
2016-02-07 22:15:00,42.4,37.0,30.07,WNW,293,0.0,0.0,81,0.00,CLR,,0.00,WeatherDisplay:10.37,2016-02-08 03:15:00,